铱星星座 148星 (IRIDIUM 148)

导读

IRIDIUM 148(铱星148)是美国铱星卫星通信系统中的一颗低轨通信卫星,于2018年3月30日发射入轨。作为第二代铱星星座的组成部分,它运行在约780公里高度的近地轨道,属于全球卫星通信网络的一部分,为全球任何地点提供无缝隙的移动通信服务,支持语音、数据等通信业务,补充完善了铱星系统的全球覆盖能力。

Basic Information
目录编号:
43255
目录名称:
IRIDIUM 148
国际标识:
2018-030G
轨道中心:
EARTH
卫星名称:
铱星星座 148星
卫星全名:
铱星星座 148星 (IRIDIUM 148)
卫星状态:
在轨 (已飞行3042 天)
发射日期:
2018-03-30 UTC
国别 :
美国 (US)
星等 :
--
Orbit Information
数据来源 国际轨道数据 AOE轨道数据
星历时间 2026-07-27T22:34:51+0800
9小时前
查看轨道信息
2026-07-25T00:00:00+0800
3天前
查看轨道信息
半长轴 7155.806km 7155.801km
偏心率 0.0002201 0.0002151
轨道倾角 86.395° 86.396°
近地点辐角 92.200° 88.996°
升交点赤经 273.561° 274.790°
平近点角 267.944° 216.477°
近地点 776.094km 776.124km
远地点 779.244km 779.204km
周期 100.403分钟 100.403分钟
每日圈数 14.342173 14.342187
Detailed Information
平衡模式:
三轴稳定
覆盖范围:
全球
运营商:
铱星通信公司
运营商所在国:
美国
制造商(研发单位):
阿莱尼亚宇航公司
制造商所在国:
意大利
使用方式:
暂无
Satellite Introduction
铱星(Iridium)是由共66个运作中的通信卫星组成的卫星通信系统。这个系统原本规划77个通信卫星,所以用原子序数为77的铱元素来命名。铱卫星允许人们使用手持型电子设备进行全球性的语音及数据通讯。该卫星仍在工作。
2D Orbit Map
3D Orbit Map
Orbit Altitude Analysis Chart
Orbit Inclination Analysis Chart
Orbit Comprehensive Analysis Chart
View Comprehensive Chart